Location: Dumpton Point
(51.3500°N, 1.4433°E)
Time: 08:33:16
(UTC+00:00)

Cosmos 2233 Rocket - Pass Details

Date: 09 April 2020
Orbit: 952 x 991 km, 82.9° (Epoch: 24 May)

Event Time Altitude Azimuth Distance (km) Brightness Sun altitude
Rises 23:39:06 0° 351° (N) 3,705 8.2 -30.5°
Reaches altitude 10° 23:41:42 10° 356° (N) 2,748 7.3 -30.5°
Maximum altitude 23:47:55 58° 75° (ENE) 1,126 4.2 -30.6°
Enters shadow 23:47:57 58° 77° (ENE) 1,126 4.2 -30.6°
